Voltar ao catálogo

DELTA 1 DEB

AtivoPO
NORAD 19365·DEBRIS·🇺🇸 United States

Lançado Jan 22, 1975 de Vandenberg Space Force Base

Loading…

Próximas Passagens (próximas 24 horas)

TLE

AtualizadoSource: Space-Track

Época: Sep 14, 2026, 06:15 UTC

1 19365U 75004HQ  26257.26047160  .00001000  00000-0  33203-3 0  9993
2 19365  97.7016 184.1159 0133062  69.3370 292.2026 14.34674565992488

Acompanhe DELTA 1 DEB em tempo real com AllMySat

Download on the App Store